Regional Weather Roundup
Issued by NWS

Home | Current Version | Previous Version | Graphics & Text | Print | Product List | Glossary On
Versions: 1 2 3 4 5 6 7 8 9 10 11 12 13 14 15 16 17 18 19 20 21 22 23 24 25 26 27 28 29 30 31 32 33 34 35 36 37 38 39 40 41 42 43 44 45 46 47 48 49 50
000
ASUS43 KIND 282359
RWRIN

WEATHER ROUNDUP FOR INDIANA
NATIONAL WEATHER SERVICE INDIANAPOLIS IN
800 PM EDT MON JUL 28 2014

NOTE: "FAIR" INDICATES FEW OR NO CLOUDS BELOW 12,000 FEET WITH NO
SIGNIFICANT WEATHER AND/OR OBSTRUCTIONS TO VISIBILITY.

* - STATION DOES NOT REPORT WEATHER SUCH AS PRECIPITATION OR FOG.

+ - STATION NOT QUALITY CONTROLLED BY THE NATIONAL WEATHER SERVICE.
    USE DATA WITH CAUTION...ESPECIALLY DEWPOINT AND RELATIVE
    HUMIDITY OBSERVATIONS.

INZ001>003-010>013-019-020-290100-
NORTHWEST INDIANA

CITY           SKY/WX    TMP DP  RH WIND       PRES   REMARKS
GARY /AIRPORT/ MOSUNNY   64  50  59 NW9       30.09F
KNOX *+        SUNNY     62  45  53 N9G17     30.05S
MONTICELLO +   SUNNY     63  49  60 N13G25    30.06S
RENSSELAER +   SUNNY     64  48  55 N10       30.08S
VALPARAISO     SUNNY     64  48  56 N13G20    30.07S
6HR MIN TEMP:  60; 6HR MAX TEMP:  64;


$$

LMZ046-743>745-290100-
SOUTHERN LAKE MICHIGAN

STATION/POSITION TIME  TEMP WIND        PRES
                       AIR  DIR/SP/G
                 (UTC) (F)  (DEG/KT/KT) (MB)
MICHIGAN CITY    2300   64  340/ 27/ 32   N/A

$$

INZ004-005-014>016-021>024-290100-
NORTH CENTRAL INDIANA

CITY           SKY/WX    TMP DP  RH WIND       PRES   REMARKS
GOSHEN         SUNNY     60  50  69 N12       30.03S
6HR MIN TEMP:  60; 6HR MAX TEMP:  67;

SOUTH BEND     SUNNY     60  48  64 N13       30.05S
6HR MIN TEMP:  60; 6HR MAX TEMP:  64;

WARSAW +       SUNNY     59  46  63 NW10      30.04R

$$

INZ006>009-017-018-025>027-290100-
NORTHEAST INDIANA

CITY           SKY/WX    TMP DP  RH WIND       PRES   REMARKS
ANGOLA *+      SUNNY     63  52  67 NW7       30.00S
AUBURN +       CLEAR     63  48  59 NW10G18   30.01R
FORT WAYNE     PTCLDY    62  50  64 NW14      30.01R
6HR MIN TEMP:  62; 6HR MAX TEMP:  72;


$$

INZ028-029-035-036-043>045-051>053-290100-
WEST CENTRAL INDIANA

CITY           SKY/WX    TMP DP  RH WIND       PRES   REMARKS
GREENCASTLE +  SUNNY     64  46  52 N13G21    30.07R
LAFAYETTE      SUNNY     64  46  52 N10       30.07S
6HR MIN TEMP:  64; 6HR MAX TEMP:  70;

TERRE HAUTE    MOSUNNY   68  55  63 N12G22    30.06R
6HR MIN TEMP:  68; 6HR MAX TEMP:  75;


$$

INZ030>032-037>040-046>048-054>057-064-065-290100-
CENTRAL INDIANA

CITY           SKY/WX    TMP DP  RH WIND       PRES   REMARKS
COLUMBUS       CLEAR     68  54  60 NW12      30.02S
INDIANAPOLIS   MOSUNNY   65  47  52 NW18G24   30.04R
6HR MIN TEMP:  65; 6HR MAX TEMP:  73;

-EAGLE CREEK   SUNNY     65  48  54 NW17G25   30.04R
6HR MIN TEMP:  65; 6HR MAX TEMP:  72;

KOKOMO *+      SUNNY     63  46  55 NW15      30.04R
MT COMFORT *+  SUNNY     64  54  68 NW12      30.04R
SHELBYVILLE    CLEAR     68  53  58 NW8       30.02S
6HR MIN TEMP:  68; 6HR MAX TEMP:  76;

ZIONSVILLE +   SUNNY     64  47  53 NW14      30.06R
6HR MIN TEMP:  64; 6HR MAX TEMP:  71;


$$

INZ033-034-041-042-049-050-058-059-290100-
EAST CENTRAL INDIANA

CITY           SKY/WX    TMP DP  RH WIND       PRES   REMARKS
MUNCIE         PTCLDY    63  50  62 NW14      30.02R
6HR MIN TEMP:  63; 6HR MAX TEMP:  72;


$$

INZ060-061-067>069-081>083-085>088-290100-
SOUTHWEST INDIANA

CITY           SKY/WX    TMP DP  RH WIND       PRES   REMARKS
EVANSVILLE     PTSUNNY   74  54  49 N8        30.04R
6HR MIN TEMP:  74; 6HR MAX TEMP:  80;


$$

INZ062-063-066-070>080-084-089>092-290100-
SOUTH CENTRAL AND SOUTHEAST INDIANA

CITY           SKY/WX    TMP DP  RH WIND       PRES   REMARKS
BLOOMINGTON    MOSUNNY   69  56  62 N10       30.04R
6HR MIN TEMP:  69; 6HR MAX TEMP:  75;


$$




USA.gov is the U.S. government's official web portal to all federal, state and local government web resources and services.